Simultaneous Nadir Overpasses (SNOs) Predictions

Prediction of SNOs between AQUA and LANDSAT-8 Satellite Orbit:

Table of predicted SNOs for the next 14.0 days since TLE Epoch: 1/12/2024
Index Date (AQUA) Time (AQUA) Lat,Lon (AQUA) SZA (AQUA ) Date (LANDSAT-8) Time (LANDSAT-8) Lat,Lon (LANDSAT-8) SZA (LANDSAT-8 ) Distance(km) Time Diff (sec)
1 01/25/2024 21:05:32 -72.44, 46.52 88.74 01/25/2024 21:04:26 -72.43, 43.91 88.73 87.68 66
2 01/25/2024 21:54:56 72.43,-145.82 91.25 01/25/2024 21:53:51 72.43,-148.44 91.27 88.09 65
3 01/25/2024 22:44:23 -72.69, 21.35 88.51 01/25/2024 22:43:14 -72.69, 19.69 88.49 55.10 69
4 01/25/2024 23:33:47 72.68,-170.99 91.48 01/25/2024 23:32:39 72.70,-172.66 91.51 55.40 68
5 01/26/2024 00:23:14 -72.94, -3.83 88.27 01/26/2024 00:22:03 -72.91, -4.62 88.29 26.19 71
6 01/26/2024 01:12:38 72.93, 163.83 91.72 01/26/2024 01:11:27 72.96, 163.13 91.76 22.89 71
7 01/26/2024 02:02:04 -73.13, -28.92 88.09 01/26/2024 02:00:52 -73.12, -28.93 88.10 1.94 72
8 01/26/2024 02:51:28 73.13, 138.74 91.91 01/26/2024 02:50:17 73.12, 138.73 91.90 1.14 71



Historial Predications of SNOs between AQUA and LANDSAT-8
